Location: Ripley
(48.3812°N, 115.4473°W)
Time: 16:02:14
(UTC+00:00)

O/OREOS (USA 219) - Pass Details

Date: 06 July 2022
Orbit: 621 x 646 km, 72.0° (Epoch: 22 May)

Event Time Altitude Azimuth Distance (km) Brightness Sun altitude
Rises 05:43:30 0° 341° (NNW) 2,966 ? -13.8°
Reaches altitude 10° 05:46:08 10° 354° (N) 2,055 ? -14.0°
Maximum altitude 05:49:57 25° 50° (NE) 1,312 ? -14.3°
Enters shadow 05:53:29 11° 104° (ESE) 1,962 ? -14.6°
